,,PA_Meas_PMT16A,,PR_Meas_QMR101_102,,RH_Meas_QMH101,,SR_Meas_QMS101,,TA_Meas_QMH101,,GenWind,,GenWind,
time,status,PA,status,PR,status,RH,status,SR,status,TA,status,DirAvg,status,SpdAvg,
2013-12-07, 00:00:04,VALID,915.835,VALID,0,VALID,97.1757,VALID,0,VALID,20.4439,VALID,143,VALID,0,
2013-12-07, 00:01:04,VALID,915.848,VALID,0,VALID,97.1528,VALID,0,VALID,20.4454,VALID,144,VALID,0,
2013-12-07, 00:02:04,VALID,915.847,VALID,0,VALID,97.1604,VALID,0,VALID,20.4439,VALID,144,VALID,0,
2013-12-07, 00:03:04,VALID,915.835,VALID,0,VALID,97.1528,VALID,0,VALID,20.4439,VALID,144,VALID,0,
2013-12-07, 00:04:04,VALID,915.81,VALID,0,VALID,97.1833,VALID,0,VALID,20.4454,VALID,144,VALID,0,
2013-12-07, 00:05:04,VALID,915.799,VALID,0,VALID,97.1833,VALID,0,VALID,20.3854,VALID,144,VALID,0,
2013-12-07, 00:06:04,VALID,915.803,VALID,0,VALID,97.1681,VALID,0,VALID,20.4259,VALID,144,VALID,0,
2013-12-07, 00:07:04,VALID,915.781,VALID,0,VALID,97.1604,VALID,0,VALID,20.4665,VALID,144,VALID,0,
2013-12-07, 00:08:04,VALID,915.807,VALID,0,VALID,97.1757,VALID,0,VALID,20.4064,VALID,144,VALID,0,
2013-12-07, 00:09:04,VALID,915.796,VALID,0,VALID,97.1681,VALID,0,VALID,20.4454,VALID,144,VALID,0,
2013-12-07, 00:10:04,VALID,915.747,VALID,0,VALID,97.1681,VALID,0,VALID,20.4439,VALID,144,VALID,0,
2013-12-07, 00:11:04,VALID,915.73,VALID,0,VALID,97.1833,VALID,0,VALID,20.4439,VALID,144,VALID,0,
2013-12-07, 00:12:04,VALID,915.722,VALID,0,VALID,97.1681,VALID,0,VALID,20.4439,VALID,144,VALID,0,
2013-12-07, 00:13:04,VALID,915.722,VALID,0,VALID,97.1681,VALID,0,VALID,20.4439,VALID,144,VALID,0,
2013-12-07, 00:14:04,VALID,915.711,VALID,0,VALID,97.1604,VALID,0,VALID,20.465,VALID,144,VALID,0,
2013-12-07, 00:15:04,VALID,915.7,VALID,0,VALID,97.1681,VALID,0,VALID,20.465,VALID,144,VALID,0,
2013-12-07, 00:16:04,VALID,915.684,VALID,0,VALID,97.1757,VALID,0,VALID,20.4845,VALID,144,VALID,0,
2013-12-07, 00:17:04,VALID,915.709,VALID,0,VALID,97.1757,VALID,0,VALID,20.504,VALID,144,VALID,0,
2013-12-07, 00:18:04,VALID,915.704,VALID,0,VALID,97.1681,VALID,0,VALID,20.504,VALID,144,VALID,0,
2013-12-07, 00:19:04,VALID,915.682,VALID,0,VALID,97.1681,VALID,0,VALID,20.4829,VALID,144,VALID,0,
2013-12-07, 00:20:04,VALID,915.667,VALID,0,VALID,97.1681,VALID,0,VALID,20.4845,VALID,144,VALID,0,
2013-12-07, 00:21:04,VALID,915.649,VALID,0,VALID,97.1604,VALID,0,VALID,20.4439,VALID,144,VALID,0,
2013-12-07, 00:22:04,VALID,915.679,VALID,0,VALID,97.1604,VALID,0,VALID,20.4454,VALID,144,VALID,0,
2013-12-07, 00:23:04,VALID,915.638,VALID,0,VALID,97.1833,VALID,0,VALID,20.4259,VALID,144,VALID,0,
2013-12-07, 00:24:04,VALID,915.618,VALID,0,VALID,97.1681,VALID,0,VALID,20.4454,VALID,144,VALID,0,
2013-12-07, 00:25:04,VALID,915.644,VALID,0,VALID,97.1757,VALID,0,VALID,20.4439,VALID,144,VALID,0,
2013-12-07, 00:26:04,VALID,915.664,VALID,0,VALID,97.1833,VALID,0,VALID,20.4454,VALID,144,VALID,0,
2013-12-07, 00:27:04,VALID,915.64,VALID,0,VALID,97.1833,VALID,0,VALID,20.4259,VALID,144,VALID,0,
2013-12-07, 00:28:04,VALID,915.672,VALID,0,VALID,97.1757,VALID,0.107441,VALID,20.4244,VALID,144,VALID,0,
2013-12-07, 00:29:04,VALID,915.659,VALID,0,VALID,97.1986,VALID,0,VALID,20.4033,VALID,144,VALID,0,
2013-12-07, 00:30:04,VALID,915.689,VALID,0,VALID,97.1833,VALID,0,VALID,20.3854,VALID,144,VALID,0,
2013-12-07, 00:31:04,VALID,915.676,VALID,0.2,VALID,97.1833,VALID,0.107441,VALID,20.3659,VALID,144,VALID,0,
2013-12-07, 00:32:04,VALID,915.638,VALID,0,VALID,97.1757,VALID,0,VALID,20.3448,VALID,144,VALID,0,
2013-12-07, 00:33:04,VALID,915.663,VALID,0,VALID,97.1833,VALID,0.107441,VALID,20.3464,VALID,144,VALID,0,
2013-12-07, 00:34:04,VALID,915.645,VALID,0,VALID,97.1909,VALID,0,VALID,20.3464,VALID,144,VALID,0,
2013-12-07, 00:35:04,VALID,915.597,VALID,0,VALID,97.1909,VALID,0,VALID,20.3464,VALID,144,VALID,0,
2013-12-07, 00:36:04,VALID,915.604,VALID,0,VALID,97.1986,VALID,0,VALID,20.3659,VALID,144,VALID,0,
2013-12-07, 00:37:04,VALID,915.582,VALID,0,VALID,97.2062,VALID,0.107441,VALID,20.3659,VALID,144,VALID,0,
2013-12-07, 00:38:04,VALID,915.586,VALID,0,VALID,97.1909,VALID,0.107441,VALID,20.3643,VALID,144,VALID,0,
2013-12-07, 00:39:04,VALID,915.578,VALID,0,VALID,97.1909,VALID,0,VALID,20.3854,VALID,144,VALID,0,
2013-12-07, 00:40:04,VALID,915.57,VALID,0,VALID,97.1909,VALID,0,VALID,20.4439,VALID,144,VALID,0,
2013-12-07, 00:41:04,VALID,915.561,VALID,0,VALID,97.1833,VALID,0,VALID,20.4439,VALID,144,VALID,0,
2013-12-07, 00:42:04,VALID,915.537,VALID,0,VALID,97.1909,VALID,0,VALID,20.4228,VALID,144,VALID,0,
2013-12-07, 00:43:04,VALID,915.519,VALID,0,VALID,97.1833,VALID,0,VALID,20.4439,VALID,144,VALID,0,
2013-12-07, 00:44:04,VALID,915.505,VALID,0,VALID,97.1604,VALID,0,VALID,20.4228,VALID,144,VALID,0,
2013-12-07, 00:45:04,VALID,915.48,VALID,0,VALID,97.1681,VALID,0,VALID,20.4244,VALID,144,VALID,0,
2013-12-07, 00:46:04,VALID,915.492,VALID,0,VALID,97.1757,VALID,0,VALID,20.4845,VALID,144,VALID,0,
2013-12-07, 00:47:04,VALID,915.485,VALID,0,VALID,97.1757,VALID,0,VALID,20.4845,VALID,144,VALID,0,
2013-12-07, 00:48:04,VALID,915.489,VALID,0,VALID,97.1681,VALID,0,VALID,20.4228,VALID,144,VALID,0,
2013-12-07, 00:49:04,VALID,915.508,VALID,0,VALID,97.1833,VALID,0,VALID,20.4423,VALID,144,VALID,0,
2013-12-07, 00:50:04,VALID,915.485,VALID,0,VALID,97.1604,VALID,0,VALID,20.4634,VALID,144,VALID,0,
2013-12-07, 00:51:04,VALID,915.528,VALID,0,VALID,97.1604,VALID,0,VALID,20.525,VALID,144,VALID,0,
2013-12-07, 00:52:04,VALID,915.513,VALID,0,VALID,97.1604,VALID,0,VALID,20.4829,VALID,144,VALID,0,
2013-12-07, 00:53:04,VALID,915.538,VALID,0,VALID,97.1604,VALID,0,VALID,20.5235,VALID,144,VALID,0,
2013-12-07, 00:54:04,VALID,915.516,VALID,0,VALID,97.1681,VALID,0,VALID,20.5461,VALID,144,VALID,0,
2013-12-07, 00:55:04,VALID,915.514,VALID,0,VALID,97.1757,VALID,0,VALID,20.504,VALID,144,VALID,0,
2013-12-07, 00:56:04,VALID,915.523,VALID,0,VALID,97.1833,VALID,0,VALID,20.5266,VALID,144,VALID,0,
2013-12-07, 00:57:04,VALID,915.487,VALID,0,VALID,97.1833,VALID,0,VALID,20.4244,VALID,144,VALID,0,
2013-12-07, 00:58:04,VALID,915.506,VALID,0,VALID,97.1909,VALID,0,VALID,20.4064,VALID,144,VALID,0,
2013-12-07, 00:59:04,VALID,915.514,VALID,0,VALID,97.1909,VALID,0,VALID,20.3659,VALID,144,VALID,0,
2013-12-07, 01:00:04,VALID,915.493,VALID,0,VALID,97.1833,VALID,0,VALID,20.3869,VALID,144,VALID,0,
2013-12-07, 01:01:04,VALID,915.494,VALID,0,VALID,97.1986,VALID,0,VALID,20.3674,VALID,144,VALID,0,
2013-12-07, 01:02:04,VALID,915.484,VALID,0,VALID,97.2062,VALID,0,VALID,20.3674,VALID,144,VALID,0,
2013-12-07, 01:03:04,VALID,915.462,VALID,0,VALID,97.1986,VALID,0,VALID,20.3269,VALID,144,VALID,0,
2013-12-07, 01:04:04,VALID,915.43,VALID,0,VALID,97.1986,VALID,0,VALID,20.3479,VALID,144,VALID,0,
2013-12-07, 01:05:04,VALID,915.439,VALID,0,VALID,97.2138,VALID,0,VALID,20.3479,VALID,144,VALID,0,
2013-12-07, 01:06:04,VALID,915.407,VALID,0,VALID,97.1833,VALID,0,VALID,20.369,VALID,144,VALID,0,
2013-12-07, 01:07:04,VALID,915.388,VALID,0,VALID,97.2138,VALID,0,VALID,20.3479,VALID,144,VALID,0,
2013-12-07, 01:08:04,VALID,915.358,VALID,0,VALID,97.1986,VALID,0,VALID,20.3479,VALID,144,VALID,0,
2013-12-07, 01:09:04,VALID,915.307,VALID,0,VALID,97.2138,VALID,0,VALID,20.3479,VALID,144,VALID,0,
2013-12-07, 01:10:04,VALID,915.297,VALID,0,VALID,97.1681,VALID,0,VALID,20.3674,VALID,144,VALID,0,
2013-12-07, 01:11:04,VALID,915.306,VALID,0,VALID,97.1909,VALID,0,VALID,20.3869,VALID,144,VALID,0,
2013-12-07, 01:12:04,VALID,915.256,VALID,0,VALID,97.1909,VALID,0,VALID,20.3674,VALID,144,VALID,0,
2013-12-07, 01:13:04,VALID,915.245,VALID,0,VALID,97.2062,VALID,0,VALID,20.3869,VALID,144,VALID,0,
2013-12-07, 01:14:04,VALID,915.201,VALID,0,VALID,97.1909,VALID,0,VALID,20.3869,VALID,144,VALID,0,
2013-12-07, 01:15:04,VALID,915.197,VALID,0,VALID,97.2138,VALID,0,VALID,20.3869,VALID,144,VALID,0,
2013-12-07, 01:16:04,VALID,915.212,VALID,0,VALID,97.2214,VALID,0,VALID,20.3674,VALID,144,VALID,0,
2013-12-07, 01:17:04,VALID,915.168,VALID,0,VALID,97.2062,VALID,0,VALID,20.3674,VALID,144,VALID,0,
2013-12-07, 01:18:04,VALID,915.147,VALID,0,VALID,97.2138,VALID,0,VALID,20.3854,VALID,144,VALID,0,
2013-12-07, 01:19:04,VALID,915.141,VALID,0,VALID,97.1909,VALID,0,VALID,20.3869,VALID,144,VALID,0,
2013-12-07, 01:20:04,VALID,915.112,VALID,0,VALID,97.2062,VALID,0,VALID,20.3659,VALID,144,VALID,0,
2013-12-07, 01:21:04,VALID,915.122,VALID,0,VALID,97.1986,VALID,0,VALID,20.3674,VALID,144,VALID,0,
2013-12-07, 01:22:04,VALID,915.125,VALID,0,VALID,97.1986,VALID,0,VALID,20.3674,VALID,144,VALID,0,
2013-12-07, 01:23:04,VALID,915.097,VALID,0,VALID,97.2214,VALID,0,VALID,20.3479,VALID,144,VALID,0,
2013-12-07, 01:24:04,VALID,915.077,VALID,0,VALID,97.2062,VALID,0,VALID,20.3269,VALID,144,VALID,0,
2013-12-07, 01:25:04,VALID,915.084,VALID,0,VALID,97.1986,VALID,0,VALID,20.3269,VALID,144,VALID,0,
2013-12-07, 01:26:04,VALID,915.086,VALID,0,VALID,97.2138,VALID,0,VALID,20.2848,VALID,144,VALID,0,
2013-12-07, 01:27:04,VALID,915.092,VALID,0,VALID,97.2062,VALID,0,VALID,20.3869,VALID,144,VALID,0,
2013-12-07, 01:28:04,VALID,915.069,VALID,0,VALID,97.1986,VALID,0,VALID,20.4064,VALID,144,VALID,0,
2013-12-07, 01:29:04,VALID,915.096,VALID,0,VALID,97.2062,VALID,0.107441,VALID,20.3433,VALID,144,VALID,0,
2013-12-07, 01:30:04,VALID,915.097,VALID,0,VALID,97.1909,VALID,0.107441,VALID,20.3643,VALID,144,VALID,0,
2013-12-07, 01:31:04,VALID,915.084,VALID,0,VALID,97.229,VALID,0.107441,VALID,20.408,VALID,143,VALID,0,
2013-12-07, 01:32:04,VALID,915.136,VALID,0,VALID,97.1909,VALID,0.107441,VALID,20.408,VALID,144,VALID,0,
2013-12-07, 01:33:04,VALID,915.113,VALID,0,VALID,97.2138,VALID,0.107441,VALID,20.3464,VALID,144,VALID,0,
2013-12-07, 01:34:04,VALID,915.123,VALID,0,VALID,97.1986,VALID,0,VALID,20.3043,VALID,144,VALID,0,
2013-12-07, 01:35:04,VALID,915.146,VALID,0,VALID,97.2367,VALID,0.107441,VALID,20.3269,VALID,144,VALID,0,
2013-12-07, 01:36:04,VALID,915.132,VALID,0,VALID,97.229,VALID,0,VALID,20.3253,VALID,144,VALID,0,
2013-12-07, 01:37:04,VALID,915.135,VALID,0,VALID,97.2138,VALID,0.107441,VALID,20.3253,VALID,144,VALID,0,
2013-12-07, 01:38:04,VALID,915.127,VALID,0,VALID,97.2138,VALID,0.107441,VALID,20.3464,VALID,144,VALID,0,
2013-12-07, 01:39:04,VALID,915.125,VALID,0,VALID,97.2062,VALID,0.107441,VALID,20.3043,VALID,144,VALID,0,
2013-12-07, 01:40:04,VALID,915.129,VALID,0,VALID,97.2062,VALID,0.107441,VALID,20.3043,VALID,144,VALID,0,
2013-12-07, 01:41:04,VALID,915.095,VALID,0,VALID,97.2062,VALID,0.107441,VALID,20.3253,VALID,144,VALID,0,
2013-12-07, 01:42:04,VALID,915.084,VALID,0,VALID,97.229,VALID,0,VALID,20.3869,VALID,144,VALID,0,
2013-12-07, 01:43:04,VALID,915.097,VALID,0,VALID,97.2138,VALID,0.107441,VALID,20.3659,VALID,144,VALID,0,
2013-12-07, 01:44:04,VALID,915.091,VALID,0,VALID,97.1986,VALID,0.107441,VALID,20.3854,VALID,144,VALID,0,
2013-12-07, 01:45:04,VALID,915.067,VALID,0,VALID,97.2138,VALID,0.107441,VALID,20.3659,VALID,144,VALID,0,
2013-12-07, 01:46:04,VALID,915.086,VALID,0,VALID,97.2138,VALID,0.107441,VALID,20.3659,VALID,144,VALID,0,
2013-12-07, 01:47:04,VALID,915.034,VALID,0,VALID,97.2062,VALID,0.107441,VALID,20.3643,VALID,144,VALID,0,
2013-12-07, 01:48:04,VALID,915.043,VALID,0,VALID,97.1986,VALID,0,VALID,20.3854,VALID,144,VALID,0,
2013-12-07, 01:49:04,VALID,915.033,VALID,0,VALID,97.1909,VALID,0.107441,VALID,20.3838,VALID,144,VALID,0,
2013-12-07, 01:50:04,VALID,915.027,VALID,0,VALID,97.2062,VALID,0.107441,VALID,20.4033,VALID,144,VALID,0,
2013-12-07, 01:51:04,VALID,915.027,VALID,0,VALID,97.1986,VALID,0.107441,VALID,20.4049,VALID,144,VALID,0,
2013-12-07, 01:52:04,VALID,915.006,VALID,0,VALID,97.1986,VALID,0.107441,VALID,20.4033,VALID,144,VALID,0,
2013-12-07, 01:53:04,VALID,914.974,VALID,0,VALID,97.2062,VALID,0,VALID,20.4033,VALID,144,VALID,0,
2013-12-07, 01:54:04,VALID,914.952,VALID,0,VALID,97.1986,VALID,0.107441,VALID,20.4439,VALID,144,VALID,0,
2013-12-07, 01:55:04,VALID,914.921,VALID,0,VALID,97.2138,VALID,0.107441,VALID,20.4228,VALID,144,VALID,0,
2013-12-07, 01:56:04,VALID,914.919,VALID,0,VALID,97.2214,VALID,0.107441,VALID,20.4228,VALID,144,VALID,0,
2013-12-07, 01:57:04,VALID,914.927,VALID,0,VALID,97.2062,VALID,0.107441,VALID,20.4423,VALID,144,VALID,0,
2013-12-07, 01:58:04,VALID,914.919,VALID,0,VALID,97.2062,VALID,0.107441,VALID,20.4634,VALID,144,VALID,0,
2013-12-07, 01:59:04,VALID,914.923,VALID,0,VALID,97.2214,VALID,0.107441,VALID,20.4634,VALID,144,VALID,0,
2013-12-07, 02:00:04,VALID,914.935,VALID,0,VALID,97.2214,VALID,0.107441,VALID,20.4228,VALID,144,VALID,0,
2013-12-07, 02:01:04,VALID,914.934,VALID,0,VALID,97.1986,VALID,0.107441,VALID,20.4423,VALID,144,VALID,0,
2013-12-07, 02:02:04,VALID,914.868,VALID,0,VALID,97.2062,VALID,0.107441,VALID,20.4634,VALID,144,VALID,0,
2013-12-07, 02:03:04,VALID,914.872,VALID,0,VALID,97.1909,VALID,0.107441,VALID,20.5024,VALID,144,VALID,0,
2013-12-07, 02:04:04,VALID,914.849,VALID,0,VALID,97.1833,VALID,0.107441,VALID,20.5219,VALID,144,VALID,0,
2013-12-07, 02:05:04,VALID,914.836,VALID,0,VALID,97.1986,VALID,0.107441,VALID,20.4618,VALID,144,VALID,0,
2013-12-07, 02:06:04,VALID,914.821,VALID,0,VALID,97.1986,VALID,0.107441,VALID,20.4845,VALID,144,VALID,0,
2013-12-07, 02:07:04,VALID,914.822,VALID,0,VALID,97.1909,VALID,0.107441,VALID,20.4829,VALID,144,VALID,0,
2013-12-07, 02:08:04,VALID,914.808,VALID,0,VALID,97.1986,VALID,0.107441,VALID,20.4618,VALID,144,VALID,0,
2013-12-07, 02:09:04,VALID,914.799,VALID,0,VALID,97.1757,VALID,0.107441,VALID,20.543,VALID,144,VALID,0,
2013-12-07, 02:10:04,VALID,914.813,VALID,0,VALID,97.1909,VALID,0.107441,VALID,20.4603,VALID,144,VALID,0,
2013-12-07, 02:11:04,VALID,914.783,VALID,0,VALID,97.1833,VALID,0.107441,VALID,20.4603,VALID,144,VALID,0,
2013-12-07, 02:12:04,VALID,914.8,VALID,0,VALID,97.1833,VALID,0.107441,VALID,20.4993,VALID,144,VALID,0,
2013-12-07, 02:13:04,VALID,914.755,VALID,0,VALID,97.1909,VALID,0,VALID,20.5219,VALID,144,VALID,0,
2013-12-07, 02:14:04,VALID,914.757,VALID,0,VALID,97.1909,VALID,0,VALID,20.5641,VALID,144,VALID,0,
2013-12-07, 02:15:04,VALID,914.747,VALID,0,VALID,97.1833,VALID,0,VALID,20.5024,VALID,144,VALID,0,
2013-12-07, 02:16:04,VALID,914.747,VALID,0,VALID,97.2138,VALID,0,VALID,20.4829,VALID,144,VALID,0,
2013-12-07, 02:17:04,VALID,914.716,VALID,0,VALID,97.2062,VALID,0,VALID,20.5445,VALID,144,VALID,0,
2013-12-07, 02:18:04,VALID,914.705,VALID,0,VALID,97.1986,VALID,0,VALID,20.504,VALID,144,VALID,0,
2013-12-07, 02:19:04,VALID,914.69,VALID,0,VALID,97.2138,VALID,0,VALID,20.4845,VALID,144,VALID,0,
2013-12-07, 02:20:04,VALID,914.663,VALID,0,VALID,97.2062,VALID,0,VALID,20.4665,VALID,144,VALID,0,
2013-12-07, 02:21:04,VALID,914.659,VALID,0,VALID,97.2138,VALID,0,VALID,20.4665,VALID,144,VALID,0,
2013-12-07, 02:22:04,VALID,914.682,VALID,0,VALID,97.2138,VALID,0,VALID,20.4064,VALID,144,VALID,0,
2013-12-07, 02:23:04,VALID,914.677,VALID,0,VALID,97.229,VALID,0,VALID,20.3643,VALID,144,VALID,0,
2013-12-07, 02:24:04,VALID,914.647,VALID,0,VALID,97.2138,VALID,0,VALID,20.3838,VALID,144,VALID,0,
2013-12-07, 02:25:04,VALID,914.644,VALID,0,VALID,97.2367,VALID,0,VALID,20.3854,VALID,144,VALID,0,
2013-12-07, 02:26:04,VALID,914.652,VALID,0,VALID,97.2443,VALID,0,VALID,20.3448,VALID,144,VALID,0,
2013-12-07, 02:27:04,VALID,914.63,VALID,0,VALID,97.229,VALID,0,VALID,20.3464,VALID,144,VALID,0,
2013-12-07, 02:28:04,VALID,914.648,VALID,0,VALID,97.2367,VALID,0.107441,VALID,20.3433,VALID,144,VALID,0,
2013-12-07, 02:29:04,VALID,914.626,VALID,0,VALID,97.229,VALID,0,VALID,20.3869,VALID,144,VALID,0,
2013-12-07, 02:30:04,VALID,914.659,VALID,0,VALID,97.2214,VALID,0,VALID,20.3885,VALID,144,VALID,0,
2013-12-07, 02:31:04,VALID,914.644,VALID,0,VALID,97.229,VALID,0.107441,VALID,20.3253,VALID,144,VALID,0,
2013-12-07, 02:32:04,VALID,914.631,VALID,0,VALID,97.2595,VALID,0,VALID,20.3479,VALID,144,VALID,0,
2013-12-07, 02:33:04,VALID,914.636,VALID,0,VALID,97.229,VALID,0.107441,VALID,20.3479,VALID,144,VALID,0,
2013-12-07, 02:34:04,VALID,914.656,VALID,0,VALID,97.2367,VALID,0.107441,VALID,20.2863,VALID,144,VALID,0,
2013-12-07, 02:35:04,VALID,914.651,VALID,0,VALID,97.2443,VALID,0,VALID,20.33,VALID,144,VALID,0,
2013-12-07, 02:36:04,VALID,914.649,VALID,0,VALID,97.2443,VALID,0.107441,VALID,20.2863,VALID,144,VALID,0,
2013-12-07, 02:37:04,VALID,914.657,VALID,0,VALID,97.2138,VALID,0.107441,VALID,20.3089,VALID,144,VALID,0,
2013-12-07, 02:38:04,VALID,914.646,VALID,0,VALID,97.2519,VALID,0,VALID,20.2668,VALID,144,VALID,0,
2013-12-07, 02:39:04,VALID,914.615,VALID,0,VALID,97.2519,VALID,0,VALID,20.2458,VALID,144,VALID,0,
2013-12-07, 02:40:04,VALID,914.593,VALID,0,VALID,97.2519,VALID,0,VALID,20.2668,VALID,144,VALID,0,
2013-12-07, 02:41:04,VALID,914.603,VALID,0,VALID,97.2443,VALID,0.107441,VALID,20.2879,VALID,144,VALID,0,
2013-12-07, 02:42:04,VALID,914.569,VALID,0,VALID,97.2519,VALID,0,VALID,20.3089,VALID,144,VALID,0,
2013-12-07, 02:43:04,VALID,914.55,VALID,0,VALID,97.2443,VALID,0,VALID,20.2894,VALID,144,VALID,0,
2013-12-07, 02:44:04,VALID,914.536,VALID,0,VALID,97.2519,VALID,0,VALID,20.2894,VALID,144,VALID,0,
2013-12-07, 02:45:04,VALID,914.538,VALID,0,VALID,97.2519,VALID,0,VALID,20.2894,VALID,144,VALID,0,
2013-12-07, 02:46:04,VALID,914.531,VALID,0,VALID,97.2443,VALID,0,VALID,20.2894,VALID,144,VALID,0,
2013-12-07, 02:47:04,VALID,914.536,VALID,0,VALID,97.2214,VALID,0,VALID,20.2894,VALID,144,VALID,0,
2013-12-07, 02:48:04,VALID,914.496,VALID,0,VALID,97.2443,VALID,0,VALID,20.3105,VALID,144,VALID,0,
2013-12-07, 02:49:04,VALID,914.483,VALID,0,VALID,97.2672,VALID,0,VALID,20.2894,VALID,144,VALID,0,
2013-12-07, 02:50:04,VALID,914.506,VALID,0,VALID,97.2443,VALID,0,VALID,20.2894,VALID,144,VALID,0,
2013-12-07, 02:51:04,VALID,914.487,VALID,0,VALID,97.2595,VALID,0,VALID,20.2894,VALID,144,VALID,0,
2013-12-07, 02:52:04,VALID,914.494,VALID,0,VALID,97.2672,VALID,0,VALID,20.2684,VALID,144,VALID,0,
2013-12-07, 02:53:04,VALID,914.47,VALID,0,VALID,97.2367,VALID,0,VALID,20.2684,VALID,144,VALID,0,
2013-12-07, 02:54:04,VALID,914.472,VALID,0,VALID,97.2519,VALID,0,VALID,20.2894,VALID,144,VALID,0,
2013-12-07, 02:55:04,VALID,914.484,VALID,0,VALID,97.2443,VALID,0,VALID,20.2684,VALID,144,VALID,0,
2013-12-07, 02:56:04,VALID,914.49,VALID,0,VALID,97.2519,VALID,0,VALID,20.3089,VALID,144,VALID,0,
2013-12-07, 02:57:04,VALID,914.501,VALID,0,VALID,97.2595,VALID,0,VALID,20.3089,VALID,144,VALID,0,
2013-12-07, 02:58:04,VALID,914.492,VALID,0,VALID,97.2443,VALID,0,VALID,20.2879,VALID,144,VALID,0,
2013-12-07, 02:59:04,VALID,914.517,VALID,0,VALID,97.2595,VALID,0,VALID,20.2879,VALID,144,VALID,0,
2013-12-07, 03:00:04,VALID,914.484,VALID,0,VALID,97.229,VALID,0,VALID,20.3284,VALID,144,VALID,0,
2013-12-07, 03:01:04,VALID,914.49,VALID,0,VALID,97.2519,VALID,0,VALID,20.3089,VALID,144,VALID,0,
2013-12-07, 03:02:04,VALID,914.469,VALID,0,VALID,97.2595,VALID,0,VALID,20.2894,VALID,144,VALID,0,
2013-12-07, 03:03:04,VALID,914.491,VALID,0,VALID,97.2595,VALID,0,VALID,20.2684,VALID,144,VALID,0,
2013-12-07, 03:04:04,VALID,914.497,VALID,0,VALID,97.2595,VALID,0,VALID,20.2684,VALID,144,VALID,0,
2013-12-07, 03:05:04,VALID,914.48,VALID,0,VALID,97.2443,VALID,0,VALID,20.2684,VALID,144,VALID,0,
2013-12-07, 03:06:04,VALID,914.451,VALID,0,VALID,97.2519,VALID,0,VALID,20.2684,VALID,144,VALID,0,
2013-12-07, 03:07:04,VALID,914.46,VALID,0,VALID,97.2595,VALID,0,VALID,20.2894,VALID,144,VALID,0,
2013-12-07, 03:08:04,VALID,914.412,VALID,0,VALID,97.2443,VALID,0,VALID,20.2489,VALID,144,VALID,0,
2013-12-07, 03:09:04,VALID,914.389,VALID,0,VALID,97.2595,VALID,0,VALID,20.2489,VALID,144,VALID,0,
2013-12-07, 03:10:04,VALID,914.408,VALID,0,VALID,97.2367,VALID,0,VALID,20.2489,VALID,144,VALID,0,
2013-12-07, 03:11:04,VALID,914.354,VALID,0,VALID,97.2519,VALID,0,VALID,20.2699,VALID,144,VALID,0,
2013-12-07, 03:12:04,VALID,914.352,VALID,0,VALID,97.2519,VALID,0,VALID,20.2699,VALID,144,VALID,0,
2013-12-07, 03:13:04,VALID,914.333,VALID,0,VALID,97.2519,VALID,0,VALID,20.2684,VALID,144,VALID,0,
2013-12-07, 03:14:04,VALID,914.341,VALID,0,VALID,97.2519,VALID,0,VALID,20.2894,VALID,144,VALID,0,
2013-12-07, 03:15:04,VALID,914.334,VALID,0,VALID,97.2519,VALID,0,VALID,20.2879,VALID,144,VALID,0,
2013-12-07, 03:16:04,VALID,914.352,VALID,0,VALID,97.2443,VALID,0,VALID,20.3284,VALID,144,VALID,0,
2013-12-07, 03:17:04,VALID,914.405,VALID,0,VALID,97.2367,VALID,0,VALID,20.3074,VALID,144,VALID,0,
2013-12-07, 03:18:04,VALID,914.372,VALID,0,VALID,97.229,VALID,0,VALID,20.3479,VALID,144,VALID,0,
2013-12-07, 03:19:04,VALID,914.419,VALID,0,VALID,97.2595,VALID,0,VALID,20.3074,VALID,144,VALID,0,
2013-12-07, 03:20:04,VALID,914.408,VALID,0,VALID,97.2519,VALID,0,VALID,20.3089,VALID,144,VALID,0,
2013-12-07, 03:21:04,VALID,914.392,VALID,0,VALID,97.2519,VALID,0,VALID,20.2684,VALID,144,VALID,0,
2013-12-07, 03:22:04,VALID,914.385,VALID,0,VALID,97.2595,VALID,0,VALID,20.2278,VALID,144,VALID,0,
2013-12-07, 03:23:04,VALID,914.372,VALID,0,VALID,97.2595,VALID,0,VALID,20.2894,VALID,144,VALID,0,
2013-12-07, 03:24:04,VALID,914.374,VALID,0,VALID,97.2595,VALID,0,VALID,20.2489,VALID,144,VALID,0,
2013-12-07, 03:25:04,VALID,914.354,VALID,0,VALID,97.2672,VALID,0,VALID,20.2504,VALID,144,VALID,0,
2013-12-07, 03:26:04,VALID,914.363,VALID,0,VALID,97.2595,VALID,0,VALID,20.2699,VALID,144,VALID,0,
2013-12-07, 03:27:04,VALID,914.344,VALID,0,VALID,97.2519,VALID,0,VALID,20.2894,VALID,144,VALID,0,
2013-12-07, 03:28:04,VALID,914.322,VALID,0,VALID,97.2672,VALID,0,VALID,20.2489,VALID,144,VALID,0,
2013-12-07, 03:29:04,VALID,914.318,VALID,0,VALID,97.2748,VALID,0,VALID,20.2879,VALID,144,VALID,0,
2013-12-07, 03:30:04,VALID,914.322,VALID,0,VALID,97.2519,VALID,0,VALID,20.2684,VALID,144,VALID,0,
2013-12-07, 03:31:04,VALID,914.295,VALID,0,VALID,97.2595,VALID,0,VALID,20.2894,VALID,144,VALID,0,
2013-12-07, 03:32:04,VALID,914.32,VALID,0,VALID,97.2748,VALID,0,VALID,20.2894,VALID,144,VALID,0,
2013-12-07, 03:33:04,VALID,914.346,VALID,0,VALID,97.2443,VALID,0,VALID,20.3089,VALID,144,VALID,0,
2013-12-07, 03:34:04,VALID,914.346,VALID,0,VALID,97.2672,VALID,0,VALID,20.2894,VALID,144,VALID,0,
2013-12-07, 03:35:04,VALID,914.314,VALID,0,VALID,97.2672,VALID,0,VALID,20.2894,VALID,143,VALID,0,
2013-12-07, 03:36:04,VALID,914.34,VALID,0,VALID,97.2595,VALID,0,VALID,20.2699,VALID,144,VALID,0,
2013-12-07, 03:37:04,VALID,914.333,VALID,0,VALID,97.2672,VALID,0,VALID,20.2699,VALID,144,VALID,0,
2013-12-07, 03:38:04,VALID,914.323,VALID,0,VALID,97.2672,VALID,0,VALID,20.2489,VALID,143,VALID,0,
2013-12-07, 03:39:04,VALID,914.328,VALID,0,VALID,97.2824,VALID,0,VALID,20.2504,VALID,143,VALID,0,
2013-12-07, 03:40:04,VALID,914.318,VALID,0,VALID,97.2824,VALID,0,VALID,20.2504,VALID,144,VALID,0,
2013-12-07, 03:41:04,VALID,914.307,VALID,0,VALID,97.2595,VALID,0,VALID,20.2504,VALID,144,VALID,0,
2013-12-07, 03:42:04,VALID,914.303,VALID,0,VALID,97.2672,VALID,0,VALID,20.2309,VALID,144,VALID,0,
2013-12-07, 03:43:04,VALID,914.326,VALID,0,VALID,97.2824,VALID,0,VALID,20.2309,VALID,144,VALID,0,
2013-12-07, 03:44:04,VALID,914.343,VALID,0,VALID,97.2824,VALID,0,VALID,20.2114,VALID,144,VALID,0,
2013-12-07, 03:45:04,VALID,914.339,VALID,0,VALID,97.2595,VALID,0,VALID,20.2098,VALID,144,VALID,0,
2013-12-07, 03:46:04,VALID,914.325,VALID,0,VALID,97.2748,VALID,0,VALID,20.2114,VALID,144,VALID,0,
2013-12-07, 03:47:04,VALID,914.31,VALID,0,VALID,97.2748,VALID,0,VALID,20.2114,VALID,144,VALID,0,
2013-12-07, 03:48:04,VALID,914.285,VALID,0,VALID,97.2748,VALID,0,VALID,20.2129,VALID,144,VALID,0,
2013-12-07, 03:49:04,VALID,914.295,VALID,0,VALID,97.2595,VALID,0,VALID,20.2114,VALID,144,VALID,0,
2013-12-07, 03:50:04,VALID,914.283,VALID,0,VALID,97.2672,VALID,0,VALID,20.1919,VALID,144,VALID,0,
2013-12-07, 03:51:04,VALID,914.247,VALID,0,VALID,97.2977,VALID,0,VALID,20.1919,VALID,144,VALID,0,
2013-12-07, 03:52:04,VALID,914.236,VALID,0,VALID,97.2748,VALID,0,VALID,20.1919,VALID,144,VALID,0,
2013-12-07, 03:53:04,VALID,914.246,VALID,0,VALID,97.2748,VALID,0,VALID,20.1919,VALID,144,VALID,0,
2013-12-07, 03:54:04,VALID,914.22,VALID,0,VALID,97.2824,VALID,0,VALID,20.1919,VALID,144,VALID,0,
2013-12-07, 03:55:04,VALID,914.205,VALID,0,VALID,97.2672,VALID,0,VALID,20.2129,VALID,144,VALID,0,
2013-12-07, 03:56:04,VALID,914.2,VALID,0,VALID,97.2748,VALID,0,VALID,20.1708,VALID,143,VALID,0,